Location: Altavilla Irpina
(41.0000°N, 14.7833°E)
Time: 20:33:39
(UTC+00:00)

NOSS 3-1 (A) - Pass Details

Date: 19 May 2025
Orbit: 639 x 1568 km, 63.4° (Epoch: 18 June)

Event Time Altitude Azimuth Distance (km) Brightness Sun altitude
Exits shadow 20:50:06 46° 199° (SSW) 938 3.1 -22.3°
Maximum altitude 20:51:31 78° 122° (ESE) 740 2.7 -22.4°
Drops below altitude 10° 20:56:58 10° 37° (NE) 2,438 5.8 -22.9°
Sets 20:59:41 0° 36° (NE) 3,511 6.7 -23.2°
